King Salmon, AK

4:29 AM AKST on February 14, 2016 (GMT -0900)
Port Heiden

Weather History for PAPH - November, 2013

Change the Weather History Date:

Sunday, November 17, 2013

  Actual Average Record
Temperature  
Mean Temperature 26 °F -  
Max Temperature 33 °F 37 °F 69 °F (1998)
Min Temperature 17 °F 28 °F 6 °F (2006)
Degree Days  
Heating Degree Days 39    
Moisture  
Dew Point 10 °F    
Average Humidity 59    
Maximum Humidity 74    
Minimum Humidity 45    
Precipitation  
Precipitation 0.00 in - - ()
Sea Level Pressure  
Sea Level Pressure 30.46 in    
Wind  
Wind Speed 11 mph (NE)    
Max Wind Speed 20 mph    
Max Gust Speed 24 mph    
Visibility 10 miles    
Events      
Averages and records for this station are not official NWS values.
T = Trace of Precipitation, MM = Missing Value Source: NWS Daily Summary

Daily Weather History Graph

Daily Weather History Graph

Search for Another Location

Airport or City:

Trip Planner

Search our weather history database for the weather conditions in past years. The results will help you decide how hot, cold, wet, or windy it might be!

Date:

Astronomy

Nov. 17, 2013 Rise Set
Actual Time 9:21 AM AKST 5:17 PM AKST
Civil Twilight 8:36 AM AKST 6:01 PM AKST
Nautical Twilight 7:49 AM AKST 6:49 PM AKST
Astronomical Twilight 7:04 AM AKST 7:34 PM AKST
Moon 5:42 PM AKST (11/17) 9:24 AM AKST (11/17)
Length of Visible Light 9h 24m
Length of Day
7h 56m
Full, 100% of the Moon is Illuminated
Nov 17
Full
Nov 25
Last Quarter
Dec 2
New
Dec 9
First Quarter
Dec 17
Full

Hourly Weather History & Observations

Time (AKST) Temp. Windchill Dew Point Humidity Pressure Visibility Wind Dir Wind Speed Gust Speed Precip Events Conditions
12:16 AM 30.2 °F 22.6 °F 17.6 °F 60% 30.48 in 10.0 mi NNE 8.1 mph - N/A   Overcast
12:36 AM 30.2 °F 23.4 °F 17.6 °F 60% 30.48 in 10.0 mi NNE 6.9 mph - N/A   Overcast
12:56 AM 28.4 °F 18.5 °F 17.6 °F 64% 30.49 in 10.0 mi ENE 11.5 mph - N/A   Overcast
1:16 AM 26.6 °F 15.7 °F 15.8 °F 64% 30.49 in 10.0 mi ENE 12.7 mph - N/A   Mostly Cloudy
1:36 AM 26.6 °F 15.2 °F 15.8 °F 64% 30.49 in 10.0 mi ENE 13.8 mph - N/A   Mostly Cloudy
1:56 AM 26.6 °F 17.5 °F 14.0 °F 59% 30.49 in 10.0 mi ENE 9.2 mph - N/A   Overcast
2:16 AM 24.8 °F 15.3 °F 14.0 °F 64% 30.49 in 10.0 mi ENE 9.2 mph - N/A   Mostly Cloudy
2:36 AM 24.8 °F 16.1 °F 12.2 °F 59% 30.50 in 10.0 mi NE 8.1 mph - N/A   Scattered Clouds
2:56 AM 23.0 °F 14.7 °F 12.2 °F 63% 30.49 in 10.0 mi ENE 6.9 mph - N/A   Scattered Clouds
3:16 AM 23.0 °F 13.1 °F 14.0 °F 68% 30.49 in 10.0 mi NE 9.2 mph - N/A   Partly Cloudy
3:36 AM 24.8 °F 16.1 °F 12.2 °F 59% 30.49 in 10.0 mi ENE 8.1 mph - N/A   Clear
3:56 AM 24.8 °F 16.9 °F 12.2 °F 59% 30.48 in 10.0 mi NE 6.9 mph - N/A   Mostly Cloudy
4:16 AM 26.6 °F 18.2 °F 12.2 °F 55% 30.48 in 10.0 mi ENE 8.1 mph - N/A   Overcast
4:36 AM 26.6 °F 16.2 °F 12.2 °F 55% 30.48 in 10.0 mi ENE 11.5 mph - N/A   Overcast
4:56 AM 26.6 °F 16.2 °F 12.2 °F 55% 30.48 in 10.0 mi NE 11.5 mph - N/A   Overcast
5:16 AM 26.6 °F 16.2 °F 12.2 °F 55% 30.48 in 10.0 mi NE 11.5 mph - N/A   Overcast
5:36 AM 24.8 °F 13.4 °F 10.4 °F 54% 30.48 in 10.0 mi ENE 12.7 mph - N/A   Overcast
5:56 AM 24.8 °F 13.4 °F 12.2 °F 59% 30.48 in 10.0 mi ENE 12.7 mph - N/A   Overcast
6:16 AM 24.8 °F 12.9 °F 10.4 °F 54% 30.48 in 10.0 mi ENE 13.8 mph - N/A   Overcast
6:36 AM 24.8 °F 12.4 °F 10.4 °F 54% 30.48 in 10.0 mi ENE 15.0 mph - N/A   Overcast
6:56 AM 24.8 °F 11.5 °F 10.4 °F 54% 30.48 in 10.0 mi ENE 17.3 mph - N/A   Overcast
7:16 AM 23.0 °F 10.1 °F 10.4 °F 59% 30.47 in 10.0 mi ENE 15.0 mph - N/A   Overcast
7:36 AM 23.0 °F 9.6 °F 10.4 °F 59% 30.47 in 10.0 mi ENE 16.1 mph - N/A   Overcast
7:56 AM 23.0 °F 9.6 °F 8.6 °F 54% 30.48 in 10.0 mi ENE 16.1 mph - N/A   Overcast
8:16 AM 23.0 °F 10.1 °F 8.6 °F 54% 30.48 in 10.0 mi ENE 15.0 mph - N/A   Overcast
8:36 AM 23.0 °F 10.1 °F 8.6 °F 54% 30.48 in 10.0 mi ENE 15.0 mph - N/A   Overcast
8:56 AM 21.2 °F 9.5 °F 8.6 °F 58% 30.49 in 10.0 mi ENE 11.5 mph - N/A   Overcast
9:16 AM 21.2 °F 10.1 °F 8.6 °F 58% 30.49 in 10.0 mi ENE 10.4 mph - N/A   Overcast
9:36 AM 21.2 °F 8.9 °F 6.8 °F 54% 30.49 in 10.0 mi NE 12.7 mph - N/A   Overcast
9:56 AM 21.2 °F 9.5 °F 8.6 °F 58% 30.48 in 10.0 mi NE 11.5 mph - N/A   Overcast
10:16 AM 23.0 °F 11.1 °F 6.8 °F 50% 30.48 in 10.0 mi ENE 12.7 mph - N/A   Overcast
10:36 AM 23.0 °F 10.6 °F 8.6 °F 54% 30.48 in 10.0 mi ENE 13.8 mph - N/A   Overcast
10:56 AM 23.0 °F 10.1 °F 8.6 °F 54% 30.47 in 10.0 mi ENE 15.0 mph - N/A   Overcast
11:16 AM 24.8 °F 12.4 °F 8.6 °F 50% 30.46 in 10.0 mi ENE 15.0 mph - N/A   Overcast
11:36 AM 24.8 °F 12.4 °F 8.6 °F 50% 30.46 in 10.0 mi ENE 15.0 mph - N/A   Overcast
11:56 AM 24.8 °F 13.4 °F 8.6 °F 50% 30.46 in 10.0 mi ENE 12.7 mph - N/A   Overcast
12:16 PM 24.8 °F 13.4 °F 8.6 °F 50% 30.46 in 10.0 mi NE 12.7 mph - N/A   Overcast
12:36 PM 24.8 °F 14.0 °F 8.6 °F 50% 30.46 in 10.0 mi NE 11.5 mph - N/A   Overcast
12:56 PM 23.0 °F 11.1 °F 8.6 °F 54% 30.46 in 10.0 mi NE 12.7 mph - N/A   Overcast
1:16 PM 23.0 °F 13.9 °F 8.6 °F 54% 30.46 in 10.0 mi NE 8.1 mph - N/A   Overcast
1:36 PM 23.0 °F 12.4 °F 8.6 °F 54% 30.46 in 10.0 mi NE 10.4 mph - N/A   Overcast
1:56 PM 23.0 °F 12.4 °F 8.6 °F 54% 30.46 in 10.0 mi NNE 10.4 mph - N/A   Overcast
2:16 PM 23.0 °F 11.7 °F 10.4 °F 59% 30.45 in 10.0 mi NE 11.5 mph - N/A   Overcast
2:36 PM 21.2 °F 8.9 °F 14.0 °F 74% 30.46 in 10.0 mi NE 12.7 mph - N/A   Overcast
2:56 PM 21.2 °F 10.1 °F 8.6 °F 58% 30.45 in 10.0 mi NE 10.4 mph - N/A   Overcast
3:16 PM 21.2 °F 8.9 °F 8.6 °F 58% 30.45 in 10.0 mi ENE 12.7 mph - N/A   Overcast
3:36 PM 21.2 °F 9.5 °F 6.8 °F 54% 30.45 in 10.0 mi NE 11.5 mph - N/A   Overcast
3:56 PM 21.2 °F 9.5 °F 10.4 °F 63% 30.44 in 10.0 mi NE 11.5 mph - N/A   Overcast
4:16 PM 21.2 °F 10.1 °F 8.6 °F 58% 30.44 in 10.0 mi NE 10.4 mph - N/A   Overcast
4:36 PM 21.2 °F 10.9 °F 8.6 °F 58% 30.44 in 10.0 mi NE 9.2 mph - N/A   Overcast
4:56 PM 21.2 °F 10.1 °F 10.4 °F 63% 30.44 in 8.0 mi NE 10.4 mph - N/A   Overcast
5:16 PM 19.4 °F 8.6 °F 10.4 °F 68% 30.44 in 5.0 mi NE 9.2 mph - N/A   Overcast
5:36 PM 19.4 °F 8.6 °F 10.4 °F 68% 30.44 in 5.0 mi NE 9.2 mph - N/A   Overcast
5:56 PM 19.4 °F 10.4 °F 10.4 °F 68% 30.43 in 10.0 mi NE 6.9 mph - N/A   Overcast
6:16 PM 19.4 °F 7.2 °F 10.4 °F 68% 30.44 in 8.0 mi ENE 11.5 mph - N/A   Overcast
6:36 PM 19.4 °F 7.9 °F 8.6 °F 63% 30.44 in 9.0 mi ENE 10.4 mph - N/A   Overcast
6:56 PM 19.4 °F 7.9 °F 10.4 °F 68% 30.44 in 5.0 mi NE 10.4 mph - N/A   Overcast
7:16 PM 19.4 °F 6.0 °F 10.4 °F 68% 30.43 in 5.0 mi NE 13.8 mph - N/A   Overcast
7:36 PM 19.4 °F 7.9 °F 10.4 °F 68% 30.43 in 6.0 mi ENE 10.4 mph - N/A   Overcast
7:56 PM 19.4 °F 6.6 °F 10.4 °F 68% 30.43 in 10.0 mi ENE 12.7 mph - N/A   Overcast
8:16 PM 19.4 °F 5.5 °F 8.6 °F 63% 30.43 in 10.0 mi ENE 15.0 mph - N/A   Overcast
8:36 PM 19.4 °F 5.0 °F 8.6 °F 63% 30.43 in 10.0 mi NE 16.1 mph - N/A   Overcast
8:56 PM 19.4 °F 4.5 °F 8.6 °F 63% 30.43 in 10.0 mi NE 17.3 mph - N/A   Overcast
9:16 PM 19.4 °F 4.5 °F 8.6 °F 63% 30.43 in 10.0 mi NE 17.3 mph - N/A   Overcast
9:36 PM 19.4 °F 3.6 °F 8.6 °F 63% 30.43 in 10.0 mi ENE 19.6 mph 24.2 mph N/A   Overcast
9:56 PM 19.4 °F 5.0 °F 8.6 °F 63% 30.44 in 10.0 mi NE 16.1 mph - N/A   Overcast
10:16 PM 19.4 °F 5.0 °F 8.6 °F 63% 30.44 in 10.0 mi ENE 16.1 mph 19.6 mph N/A   Overcast
10:36 PM 19.4 °F 5.5 °F 8.6 °F 63% 30.44 in 10.0 mi NE 15.0 mph - N/A   Overcast
10:56 PM 19.4 °F 7.2 °F 8.6 °F 63% 30.43 in 10.0 mi ENE 11.5 mph - N/A   Overcast
11:16 PM 19.4 °F 7.9 °F 8.6 °F 63% 30.43 in 10.0 mi ENE 10.4 mph - N/A   Overcast
11:36 PM 19.4 °F 8.6 °F 10.4 °F 68% 30.43 in 10.0 mi NE 9.2 mph - N/A   Overcast
11:56 PM 17.6 °F 6.4 °F 8.6 °F 68% 30.43 in 10.0 mi NE 9.2 mph - N/A   Overcast